Overview Statistics Trail Chart Weather Telemetry Raw packets
 

This is the latest recevied weather packets stored in our database for station/object NT9G. If no packets are shown the sender has not sent any weather packets the latest 10 day(s).

<< 81 82 83 84 85 86 87 >>
Time Temp. Humidity Pressure Rain* Wind** Luminosity Snow
1777216967 18.89° C 56% 1017.5 hPa 0 mm - - -
1777216667 18.89° C 56% 1017.4 hPa 0 mm - - -
1777216366 18.33° C 58% 1017.4 hPa 0 mm - - -
1777216066 18.33° C 57% 1017.4 hPa 0 mm - - -
1777215766 18.33° C 59% 1017.4 hPa 0 mm - - -
1777215465 17.78° C 60% 1017.5 hPa 0 mm - - -
1777215165 17.22° C 61% 1017.5 hPa 0 mm - - -
1777214865 17.22° C 60% 1017.4 hPa 0 mm - - -
1777214565 17.22° C 63% 1017.3 hPa 0 mm - - -
1777214264 16.67° C 64% 1017.4 hPa 0 mm - - -
1777213964 16.67° C 63% 1017.3 hPa 0 mm - - -
1777213664 16.67° C 67% 1017.2 hPa 0 mm - - -
1777213364 16.11° C 68% 1017.3 hPa 0 mm - - -
1777213063 15.56° C 69% 1017.3 hPa 0 mm - - -
1777212763 15° C 68% 1017.4 hPa 0 mm - - -
1777212463 15.56° C 72% 1017.4 hPa 0 mm - - -
1777212162 15° C 73% 1017.5 hPa 0 mm - - -
1777211862 14.44° C 74% 1017.5 hPa 0 mm - - -
1777211562 13.89° C 76% 1017.6 hPa 0 mm - - -
1777211261 13.89° C 76% 1017.6 hPa 0 mm - - -
1777210961 13.89° C 79% 1017.5 hPa 0 mm - - -
1777210661 13.33° C 80% 1017.5 hPa 0 mm - - -
1777210361 12.78° C 83% 1017.5 hPa 0 mm - - -
1777210060 12.78° C 85% 1017.4 hPa 0 mm - - -
1777209760 12.22° C 84% 1017.3 hPa 0 mm - - -

* Rain since midnight (hover to see other rain measurements)
** Current wind speed in m/s (hover to see current wind gust speed)